AA2YS Weather Reports


Display with metric or nautical units.
time (UTC)temp
F
wind
direction
speed
MPH
gust
MPH
rain 1hr
in
rain 24hr
in
rain mn
in
humidity
%
barometer
mb
20260903194601 81 0.0 0.0 0.00 1.79 0.01 78 1011.8
20260903193520 81 0.0 2.0 0.00 1.79 0.01 77 1011.8
20260903192541 82 0.0 0.0 0.00 1.79 0.01 76 1011.9
20260903191521 83 225 1.0 7.0 0.00 1.79 0.01 74 1012.0
20260903190521 84 0.0 0.0 0.00 1.79 0.01 75 1011.7
20260903185519 84 0.0 2.0 0.00 1.79 0.01 74 1011.7
20260903184521 84 0.0 0.0 0.00 1.79 0.01 74 1012.0
20260903183521 85 0.0 0.0 0.00 1.79 0.01 72 1012.2
20260903182541 85 0.0 1.0 0.00 1.79 0.01 72 1012.2
20260903181520 86 0.0 2.0 0.00 1.79 0.01 71 1012.0
20260903180521 86 0.0 0.0 0.00 1.79 0.01 70 1012.2
20260903175520 86 270 1.0 5.0 0.00 1.79 0.01 72 1012.1
20260903174541 86 0.0 0.0 0.00 1.79 0.01 72 1012.2
20260903173521 85 0.0 0.0 0.00 1.79 0.01 72 1012.3
20260903172521 85 0.0 0.0 0.00 1.79 0.01 71 1012.3
20260903171521 84 0.0 3.0 0.00 1.79 0.01 72 1012.2
20260903170521 83 0.0 0.0 0.00 1.79 0.01 74 1012.5
20260903165522 83 0.0 1.0 0.00 1.79 0.01 78 1012.5
20260903164541 82 0.0 1.0 0.00 1.79 0.01 80 1012.4
20260903163521 81 0.0 0.0 0.00 1.79 0.01 82 1012.5
20260903162521 80 0.0 1.0 0.00 1.79 0.01 79 1012.6
20260903161521 79 0.0 0.0 0.00 1.79 0.01 85 1012.7
20260903160521 78 0.0 0.0 0.00 1.79 0.01 84 1012.9
20260903155521 77 0.0 0.0 0.00 1.79 0.01 93 1013.0
20260903154520 76 0.0 1.0 0.00 1.79 0.01 93 1013.1
20260903153519 75 0.0 0.0 0.00 1.79 0.01 95 1013.2
20260903152521 75 0.0 1.0 0.00 1.79 0.01 96 1013.2
20260903151521 75 0.0 2.0 0.00 1.79 0.01 97 1013.1
20260903150521 75 0.0 0.0 0.00 1.79 0.01 97 1013.2
20260903145521 75 0.0 0.0 0.00 1.79 0.01 97 1013.2
20260903144521 74 0.0 0.0 0.00 1.79 0.01 98 1013.3
20260903143541 74 0.0 0.0 0.00 1.79 0.01 98 1013.3
20260903142521 74 0.0 0.0 0.00 1.79 0.01 97 1013.3
20260903141521 73 0.0 0.0 0.00 1.79 0.01 98 1013.2
20260903140522 73 0.0 0.0 0.00 1.79 0.01 97 1013.2
20260903135521 73 0.0 2.0 0.00 1.79 0.01 97 1013.1
20260903134601 72 0.0 0.0 0.00 1.79 0.01 97 1013.1
20260903133521 72 0.0 2.0 0.00 1.79 0.01 97 1013.2
20260903132521 72 0.0 3.0 0.00 1.79 0.01 97 1013.3
20260903131541 72 0.0 2.0 0.00 1.79 0.01 97 1013.4
20260903130521 71 0.0 4.0 0.00 1.81 0.01 97 1013.4
20260903125520 71 0.0 3.0 0.00 1.83 0.01 97 1013.4
20260903124521 71 0.0 1.0 0.00 1.84 0.01 97 1013.5
20260903123521 71 0.0 0.0 0.00 1.85 0.01 97 1013.4
20260903122521 70 0.0 0.0 0.00 1.86 0.01 97 1013.5
20260903121521 70 0.0 0.0 0.00 1.86 0.01 97 1013.4
20260903120521 70 0.0 0.0 0.00 1.86 0.01 97 1013.2
20260903115521 69 0.0 0.0 0.00 1.86 0.01 96 1013.0
20260903114521 69 0.0 0.0 0.01 1.86 0.01 96 1013.0
20260903113521 69 0.0 0.0 0.01 1.86 0.01 96 1012.9
20260903112521 69 0.0 0.0 0.01 1.86 0.01 96 1012.8
20260903111541 69 0.0 0.0 0.01 1.86 0.01 96 1012.8
20260903110521 69 0.0 0.0 0.01 1.86 0.01 96 1012.6
20260903105521 68 0.0 0.0 0.01 1.86 0.01 96 1012.6
20260903104521 68 0.0 0.0 0.00 1.85 0.00 96 1012.6
20260903103521 68 0.0 0.0 0.00 1.85 0.00 96 1012.5
20260903102521 68 0.0 0.0 0.00 1.85 0.00 96 1012.2
20260903101521 68 0.0 0.0 0.00 1.85 0.00 96 1012.1
20260903100521 68 0.0 0.0 0.00 1.85 0.00 96 1012.0
20260903095541 68 0.0 0.0 0.00 1.85 0.00 96 1012.2
20260903094521 68 0.0 0.0 0.00 1.85 0.00 96 1012.2
20260903093521 68 0.0 0.0 0.00 1.85 0.00 96 1012.2
20260903092541 68 0.0 0.0 0.00 1.85 0.00 96 1012.1
20260903091521 68 0.0 0.0 0.00 1.85 0.00 96 1012.2
20260903090521 69 0.0 0.0 0.00 1.85 0.00 96 1012.2
20260903085521 69 0.0 0.0 0.00 1.85 0.00 96 1012.1
20260903084521 69 0.0 0.0 0.00 1.85 0.00 96 1012.1
20260903083520 69 0.0 0.0 0.00 1.85 0.00 96 1012.0
20260903082521 69 0.0 0.0 0.00 1.85 0.00 96 1012.0
20260903081521 69 0.0 0.0 0.00 1.85 0.00 96 1012.0
20260903080521 69 0.0 0.0 0.00 1.85 0.00 96 1011.9
20260903075521 69 0.0 0.0 0.00 1.85 0.00 96 1011.8
20260903074521 69 0.0 0.0 0.00 1.85 0.00 96 1011.7
20260903073521 69 0.0 0.0 0.00 1.85 0.00 96 1011.8
20260903072521 69 0.0 0.0 0.00 1.85 0.00 96 1011.8
20260903071521 69 0.0 0.0 0.00 1.85 0.00 96 1011.9
20260903070521 69 0.0 0.0 0.00 1.85 0.00 96 1012.0
20260903065521 69 0.0 0.0 0.00 1.85 0.00 96 1012.2
20260903064541 70 0.0 0.0 0.00 1.85 0.00 96 1012.1
20260903063521 70 0.0 0.0 0.00 1.85 0.00 96 1012.1
20260903062521 70 0.0 0.0 0.00 1.85 0.00 96 1012.1
20260903061521 70 0.0 0.0 0.00 1.85 0.00 96 1012.0
20260903060521 70 0.0 0.0 0.00 1.85 0.00 96 1012.1
20260903055601 69 0.0 0.0 0.00 1.85 0.00 95 1012.1
20260903054521 69 0.0 0.0 0.00 1.85 0.00 95 1012.2
20260903053521 69 0.0 0.0 0.00 1.85 0.00 95 1012.3
20260903052521 69 0.0 0.0 0.00 1.85 0.00 95 1011.9
20260903051521 69 0.0 0.0 0.00 1.85 0.00 95 1011.6
20260903050521 70 0.0 0.0 0.00 1.85 0.00 95 1011.8
20260903045521 70 0.0 0.0 0.00 1.85 0.00 95 1011.6
20260903044520 70 0.0 0.0 0.00 1.85 0.00 95 1011.5
20260903043520 70 0.0 0.0 0.00 1.85 0.00 95 1011.6
20260903042521 70 0.0 0.0 0.00 1.85 0.00 95 1011.4
20260903041520 70 0.0 0.0 0.00 1.85 0.00 95 1011.3
20260903040521 70 0.0 0.0 0.00 1.85 0.00 95 1011.3
20260903035520 70 0.0 0.0 0.00 1.85 0.29 95 1011.2
20260903034520 70 0.0 0.0 0.00 1.85 0.29 95 1011.5
20260903033519 70 0.0 1.0 0.00 1.85 0.29 95 1011.8
20260903032519 70 0.0 0.0 0.04 1.85 0.29 95 1011.9
20260903031519 70 0.0 0.0 0.05 1.85 0.29 95 1012.0
20260903030520 70 0.0 2.0 0.06 1.85 0.29 95 1012.0
20260903025520 70 0.0 0.0 0.06 1.85 0.29 95 1012.0
20260903024519 70 0.0 0.0 0.09 1.85 0.29 95 1012.2
20260903023520 70 0.0 1.0 0.12 1.85 0.29 95 1012.5
20260903022519 70 0.0 2.0 0.08 1.81 0.25 94 1013.1
20260903021520 70 0.0 0.0 0.07 1.80 0.24 94 1013.2
20260903020520 70 0.0 3.0 0.07 1.79 0.23 94 1011.7
20260903015521 70 0.0 2.0 0.08 1.79 0.23 94 1011.9
20260903014601 70 0.0 1.0 0.06 1.76 0.20 94 1012.1
20260903013519 70 0.0 4.0 0.05 1.73 0.17 93 1012.7
20260903012519 70 0.0 2.0 0.07 1.73 0.17 93 1012.8
20260903011520 70 0.0 2.0 0.10 1.73 0.17 93 1013.1
20260903010520 70 0.0 3.0 0.15 1.72 0.16 92 1012.9
20260903005519 71 0.0 1.0 0.32 1.71 0.15 92 1013.2
20260903004520 71 0.0 0.0 0.78 1.70 0.14 91 1013.7
20260903003519 71 0.0 0.0 1.35 1.68 0.12 90 1012.9
20260903002519 71 0.0 1.0 1.50 1.66 0.10 90 1012.5
20260903001519 72 135 1.0 6.0 1.47 1.63 0.07 88 1012.0
20260903000520 73 113 1.0 2.0 1.50 1.57 0.01 87 1013.2
20260902235521 74 203 2.0 6.0 1.32 1.39 1.39 85 1014.1
20260902234520 76 90 2.0 8.0 0.85 0.92 0.92 82 1012.8
20260902234423 78 45 4.0 17.0 0.26 0.33 0.33 81 1012.9
20260902232520 80 0.0 5.0 0.09 0.16 0.16 85 1010.6
20260902231520 81 158 2.0 9.0 0.09 0.16 0.16 84 1010.4
20260902230520 82 0.0 0.0 0.00 0.07 0.07 82 1010.9
20260902225520 83 0.0 0.0 0.00 0.07 0.07 82 1010.4
20260902224520 83 0.0 0.0 0.00 0.07 0.07 81 1010.8
20260902223520 84 0.0 0.0 0.00 0.07 0.07 81 1010.6
20260902222520 84 0.0 0.0 0.00 0.07 0.07 81 1010.6
20260902221600 84 0.0 0.0 0.00 0.07 0.07 80 1010.7
20260902220520 85 0.0 0.0 0.00 0.07 0.07 80 1010.9
20260902215520 85 0.0 0.0 0.00 0.07 0.07 79 1010.9
20260902214520 85 0.0 0.0 0.00 0.07 0.07 79 1011.1
20260902213520 86 0.0 0.0 0.00 0.07 0.07 78 1011.3
20260902212520 86 0.0 0.0 0.00 0.07 0.07 77 1011.2
20260902211540 86 0.0 0.0 0.00 0.07 0.07 76 1011.4
20260902210521 86 0.0 0.0 0.00 0.07 0.07 75 1011.4
20260902205520 86 0.0 0.0 0.00 0.07 0.07 75 1011.9
20260902204520 86 0.0 0.0 0.00 0.07 0.07 74 1012.4
20260902203540 87 0.0 0.0 0.00 0.07 0.07 74 1012.5
20260902202520 86 0.0 0.0 0.00 0.07 0.07 73 1012.6
20260902201519 87 0.0 4.0 0.00 0.07 0.07 74 1012.8
20260902200520 87 0.0 0.0 0.00 0.07 0.07 73 1012.8
20260902195519 87 0.0 4.0 0.00 0.07 0.07 73 1013.1